Weather History for Jennings, LA

Change the Weather History Date:

Monday, December 23, 2013

  Actual Average (KLCH) Record (KLCH)
Temperature  
Mean Temperature 41 °F 53 °F  
Max Temperature 48 °F 62 °F 79 °F (1931)
Min Temperature 34 °F 43 °F 11 °F (1989)
Degree Days  
Heating Degree Days 24 13  
Month to date heating degree days 260  
Since 1 July heating degree days 467  
Cooling Degree Days 0 1  
Month to date cooling degree days 23  
Year to date cooling degree days 2812  
Moisture  
Dew Point 33 °F    
Average Humidity 75    
Maximum Humidity 90    
Minimum Humidity 51    
Precipitation  
Precipitation 0.00 in 0.15 in 2.22 in (1945)
Month to date precipitation 3.37  
Year to date precipitation 56.18  
Snow  
Snow 0.00 in 0.00 in T in (1963)
Month to date snowfall 0.0  
Since 1 July snowfall 0.0  
Snow Depth -    
Sea Level Pressure  
Sea Level Pressure 30.40 in    
Wind  
Wind Speed 13 mph (North)    
Max Wind Speed 18 mph    
Max Gust Speed 26 mph    
Visibility 10 miles    
Events      
T = Trace of Precipitation, MM = Missing Value Source: NWS Daily Summary

Daily Weather History Graph

Daily Weather History Graph

Search for Another Location

Airport:

Trip Planner

Search our weather history database for the weather conditions in past years. The results will help you decide how hot, cold, wet, or windy it might be!

Date:

Astronomy

Dec. 23, 2013 Rise Set
Actual Time 7:04 AM CST 5:15 PM CST
Civil Twilight 6:37 AM CST 5:42 PM CST
Nautical Twilight 6:07 AM CST 6:12 PM CST
Astronomical Twilight 5:38 AM CST 6:41 PM CST
Moon 11:01 PM CST (12/23) 10:51 AM CST (12/23)
Length of Visible Light 11h 04m
Length of Day
10h 11m
Waning Gibbous, 68% of the Moon is Illuminated
Dec 23
Waning Gibbous
Dec 25
Last Quarter
Jan 1
New
Jan 7
First Quarter
Jan 15
Full

Hourly Weather History & Observations

Time (CST) Temp. Windchill Dew Point Humidity Pressure Visibility Wind Dir Wind Speed Gust Speed Precip Events Conditions
12:15 AM 42.4 °F 35.3 °F 37.6 °F 83% 30.26 in 10.0 mi North 13.8 mph - N/A   Overcast
12:35 AM 42.1 °F 34.9 °F 37.2 °F 83% 30.25 in 10.0 mi North 13.8 mph 19.6 mph N/A   Overcast
12:55 AM 41.5 °F 34.6 °F 36.7 °F 83% 30.27 in 10.0 mi North 12.7 mph 19.6 mph N/A   Overcast
1:15 AM 40.6 °F 32.3 °F 36.0 °F 83% 30.28 in 10.0 mi North 16.1 mph 20.7 mph N/A   Overcast
1:35 AM 40.1 °F 32.4 °F 35.6 °F 84% 30.27 in 10.0 mi North 13.8 mph 19.6 mph N/A   Overcast
1:55 AM 38.8 °F 29.7 °F 34.0 °F 83% 30.28 in 10.0 mi North 17.3 mph 26.5 mph N/A   Overcast
2:15 AM 38.1 °F 29.8 °F 33.3 °F 83% 30.28 in 10.0 mi North 13.8 mph 20.7 mph N/A   Overcast
2:35 AM 38.3 °F 29.0 °F 33.8 °F 84% 30.28 in 10.0 mi NNE 17.3 mph - N/A   Overcast
2:55 AM 37.4 °F 27.5 °F 32.9 °F 84% 30.29 in 10.0 mi North 18.4 mph 23.0 mph N/A   Overcast
3:15 AM 37.6 °F 28.4 °F 32.9 °F 83% 30.28 in 10.0 mi North 16.1 mph - N/A   Overcast
3:35 AM 37.8 °F 29.0 °F 33.1 °F 83% 30.28 in 10.0 mi North 15.0 mph 21.9 mph N/A   Overcast
3:55 AM 37.8 °F 29.8 °F 33.4 °F 84% 30.28 in 10.0 mi North 12.7 mph 17.3 mph N/A   Overcast
4:15 AM 37.6 °F 28.8 °F 32.7 °F 83% 30.29 in 10.0 mi North 15.0 mph 20.7 mph N/A   Overcast
4:35 AM 37.8 °F 28.6 °F 32.9 °F 83% 30.30 in 10.0 mi North 16.1 mph - N/A   Overcast
4:55 AM 37.8 °F 29.8 °F 32.9 °F 83% 30.30 in 10.0 mi North 12.7 mph 18.4 mph N/A   Overcast
5:15 AM 37.6 °F 28.4 °F 32.5 °F 82% 30.31 in 10.0 mi North 16.1 mph - N/A   Overcast
5:35 AM 37.9 °F 29.2 °F 33.3 °F 83% 30.31 in 10.0 mi North 15.0 mph - N/A   Overcast
5:55 AM 38.1 °F 29.5 °F 33.1 °F 82% 30.32 in 10.0 mi North 15.0 mph 20.7 mph N/A   Overcast
6:15 AM 37.9 °F 29.6 °F 32.9 °F 82% 30.33 in 10.0 mi North 13.8 mph - N/A   Overcast
6:35 AM 38.3 °F 30.5 °F 33.6 °F 83% 30.33 in 10.0 mi North 12.7 mph - N/A   Overcast
6:55 AM 38.3 °F 30.9 °F 33.3 °F 82% 30.35 in 10.0 mi North 11.5 mph - N/A   Overcast
7:15 AM 38.3 °F 29.3 °F 33.4 °F 83% 30.36 in 10.0 mi North 16.1 mph - N/A   Overcast
7:35 AM 37.8 °F 29.4 °F 32.7 °F 82% 30.37 in 10.0 mi NNE 13.8 mph 17.3 mph N/A   Overcast
7:55 AM 38.3 °F 30.1 °F 33.4 °F 83% 30.37 in 10.0 mi North 13.8 mph 21.9 mph N/A   Overcast
8:15 AM 37.8 °F 30.7 °F 32.4 °F 81% 30.38 in 10.0 mi NE 10.4 mph 19.6 mph N/A   Overcast
8:35 AM 37.8 °F 28.6 °F 32.2 °F 80% 30.39 in 10.0 mi North 16.1 mph 20.7 mph N/A   Overcast
8:55 AM 37.8 °F 29.4 °F 32.0 °F 80% 30.41 in 10.0 mi North 13.8 mph 20.7 mph N/A   Overcast
9:15 AM 38.7 °F 31.4 °F 32.5 °F 79% 30.42 in 10.0 mi North 11.5 mph - N/A   Overcast
9:35 AM 38.8 °F 30.8 °F 32.2 °F 77% 30.43 in 10.0 mi North 13.8 mph 19.6 mph N/A   Overcast
9:55 AM 38.8 °F 30.4 °F 32.0 °F 76% 30.43 in 10.0 mi North 15.0 mph 19.6 mph N/A   Overcast
10:15 AM 41.0 °F 32.8 °F 32.5 °F 72% 30.43 in 10.0 mi NNE 16.1 mph 20.7 mph N/A   Overcast
10:35 AM 42.1 °F 35.7 °F 33.1 °F 70% 30.43 in 10.0 mi North 11.5 mph - N/A   Mostly Cloudy
10:55 AM 42.1 °F 35.2 °F 32.4 °F 68% 30.43 in 10.0 mi North 12.7 mph 19.6 mph N/A   Scattered Clouds
11:15 AM 43.0 °F 36.8 °F 33.3 °F 69% 30.43 in 10.0 mi NNE 11.5 mph 19.6 mph N/A   Scattered Clouds
11:35 AM 43.5 °F 36.7 °F 33.8 °F 69% 30.43 in 10.0 mi North 13.8 mph - N/A   Mostly Cloudy
11:55 AM 44.1 °F 37.7 °F 34.3 °F 69% 30.43 in 10.0 mi North 12.7 mph - N/A   Mostly Cloudy
12:15 PM 44.8 °F 38.7 °F 33.6 °F 65% 30.42 in 10.0 mi North 12.7 mph 17.3 mph N/A   Scattered Clouds
12:35 PM 44.6 °F 38.4 °F 34.3 °F 67% 30.40 in 10.0 mi North 12.7 mph - N/A   Scattered Clouds
12:55 PM 45.7 °F 41.0 °F 34.0 °F 64% 30.40 in 10.0 mi North 9.2 mph - N/A   Clear
1:15 PM 45.9 °F 40.8 °F 34.0 °F 63% 30.39 in 10.0 mi NNW 10.4 mph 17.3 mph N/A   Clear
1:35 PM 46.6 °F - 33.3 °F 60% 30.39 in 10.0 mi North 15.0 mph 18.4 mph N/A   Clear
1:55 PM 47.7 °F - 33.4 °F 58% 30.39 in 10.0 mi North 10.4 mph - N/A   Clear
2:15 PM 48.0 °F - 33.6 °F 57% 30.39 in 10.0 mi North 13.8 mph 17.3 mph N/A   Clear
2:35 PM 48.0 °F - 32.7 °F 55% 30.39 in 10.0 mi North 15.0 mph 19.6 mph N/A   Clear
2:55 PM 48.2 °F - 30.7 °F 51% 30.39 in 10.0 mi North 12.7 mph 21.9 mph N/A   Clear
3:15 PM 48.7 °F - 32.0 °F 52% 30.39 in 10.0 mi North 15.0 mph - N/A   Clear
3:35 PM 48.2 °F - 31.8 °F 53% 30.39 in 10.0 mi North 12.7 mph 18.4 mph N/A   Clear
3:55 PM 47.8 °F - 32.0 °F 54% 30.39 in 10.0 mi North 13.8 mph 19.6 mph N/A   Clear
4:15 PM 47.5 °F - 31.8 °F 55% 30.40 in 10.0 mi North 13.8 mph - N/A   Clear
4:35 PM 46.9 °F - 31.1 °F 54% 30.41 in 10.0 mi North 11.5 mph 18.4 mph N/A   Clear
4:55 PM 46.0 °F 41.4 °F 32.0 °F 58% 30.42 in 10.0 mi North 9.2 mph - N/A   Clear
5:15 PM 45.1 °F 39.5 °F 31.8 °F 60% 30.43 in 10.0 mi North 11.5 mph - N/A   Clear
5:35 PM 44.1 °F 40.1 °F 32.0 °F 63% 30.43 in 10.0 mi North 6.9 mph - N/A   Clear
5:55 PM 43.0 °F 38.2 °F 32.2 °F 66% 30.44 in 10.0 mi North 8.1 mph - N/A   Clear
6:15 PM 42.4 °F 37.5 °F 32.2 °F 67% 30.45 in 10.0 mi North 8.1 mph - N/A   Clear
6:35 PM 41.9 °F 36.9 °F 32.2 °F 68% 30.46 in 10.0 mi North 8.1 mph - N/A   Clear
6:55 PM 41.5 °F 37.1 °F 32.9 °F 71% 30.46 in 10.0 mi North 6.9 mph - N/A   Clear
7:15 PM 41.0 °F 36.4 °F 33.1 °F 73% 30.47 in 10.0 mi North 6.9 mph - N/A   Clear
7:35 PM 40.1 °F 36.9 °F 33.3 °F 77% 30.48 in 10.0 mi NNE 4.6 mph - N/A   Clear
7:55 PM 38.5 °F 35.0 °F 33.3 °F 81% 30.48 in 10.0 mi NNE 4.6 mph - N/A   Clear
8:15 PM 38.3 °F 35.9 °F 32.0 °F 78% 30.49 in 10.0 mi NNE 3.5 mph - N/A   Clear
8:35 PM 38.1 °F 33.7 °F 31.6 °F 77% 30.50 in 10.0 mi NNE 5.8 mph - N/A   Clear
8:55 PM 37.6 °F 34.0 °F 31.5 °F 79% 30.50 in 10.0 mi North 4.6 mph - N/A   Clear
9:15 PM 37.0 °F 33.3 °F 31.6 °F 81% 30.51 in 10.0 mi NNE 4.6 mph - N/A   Clear
9:35 PM 36.9 °F 33.1 °F 31.5 °F 81% 30.51 in 10.0 mi North 4.6 mph - N/A   Clear
9:55 PM 36.5 °F 32.7 °F 31.8 °F 83% 30.51 in 10.0 mi North 4.6 mph - N/A   Clear
10:15 PM 35.6 °F 32.8 °F 31.5 °F 85% 30.51 in 10.0 mi NNE 3.5 mph - N/A   Clear
10:35 PM 35.6 °F 32.8 °F 31.5 °F 85% 30.52 in 10.0 mi NNE 3.5 mph - N/A   Clear
10:55 PM 35.2 °F 32.4 °F 31.6 °F 87% 30.52 in 10.0 mi NE 3.5 mph - N/A   Clear
11:15 PM 35.1 °F 32.2 °F 31.5 °F 87% 30.52 in 10.0 mi NE 3.5 mph - N/A   Clear
11:35 PM 34.7 °F 30.6 °F 31.6 °F 89% 30.52 in 10.0 mi NE 4.6 mph - N/A   Clear
11:55 PM 34.3 °F 31.4 °F 31.6 °F 90% 30.52 in 10.0 mi NE 3.5 mph - N/A   Clear